Flag for U.S.A. Weather past 2 weeks in Escondido, California, U.S.A.

Now
55 °F

Sunny.


Feels Like: 52 °F
Forecast: 32 / 61 °F
Wind: 9 mph from Northwest

Location: Ramona Airport

Current Time: Dec 26, 2014 at 5:04:39 PM

Latest Report: Dec 26, 2014 at 3:53 PM


Visibility: 10 mi

Pressure: 30.03 "Hg

Humidity: 30%

Dew point: 24 °F

Location of EscondidoLocation

Historic Weather in Escondido — Graph

°F

Escondido temperature yesterday

Maximum temperature yesterday: 61 °F (at 2:53 PM)
Minimum temperature yesterday: 35 °F (at 11:53 PM)
Average temperature yesterday: 50 °F

Past Weeks' High & Low Weather Summary

 TemperatureHumidityPressure
High76 °F (Dec 23, 11:53 AM)100% (Dec 13, 4:59 AM)30.24 "Hg (Dec 13, 4:59 AM)
Low28 °F (Dec 26, 4:53 AM)16% (Dec 24, 10:53 AM)29.77 "Hg (Dec 25, 4:53 AM)
Average51 °F77%30.04 "Hg
* Reported Dec 11 3:53 PM — Dec 26 3:53 PM, Escondido, Weather by CustomWeather, © 2014

Note: Actual official high and low records may vary slightly from our data, if they occured in-between our weather recording intervals... More about our weather records

Advertising

Escondido weather history for previous 24 hours

 ConditionsComfort  
Time TempWeatherWind HumidityBarometerVisibility
3:53 PM
Dec 26
55 °FSunny.9 mph30%30.03 "Hg10 mi
2:53 PM58 °FSunny.3 mph18%30.03 "Hg10 mi
1:53 PM57 °FSunny.5 mph21%30.01 "Hg10 mi
12:53 PM56 °FSunny.No wind23%30.02 "Hg10 mi
11:53 AM57 °FSunny.No wind20%30.03 "Hg10 mi
10:53 AM55 °FSunny.No wind22%30.06 "Hg10 mi
9:53 AM53 °FSunny.3 mph30%30.06 "Hg10 mi
8:53 AM50 °FSunny.No wind38%30.05 "Hg10 mi
7:53 AM35 °FSunny.No wind75%30.04 "Hg10 mi
6:53 AM29 °FSunny.No wind85%30.02 "Hg10 mi
5:53 AM28 °FClear.No wind85%29.99 "Hg10 mi
4:53 AM28 °FClear.No wind85%29.96 "Hg10 mi
3:53 AM31 °FClear.No wind79%29.93 "Hg10 mi
2:53 AM31 °FClear.No wind79%29.93 "Hg10 mi
1:53 AM30 °FClear.5 mph85%29.92 "Hg10 mi
12:53 AM31 °FClear.3 mph82%29.90 "Hg10 mi
11:53 PM
Dec 25
35 °FClear.No wind70%29.90 "Hg10 mi
10:53 PM36 °FClear.5 mph73%29.91 "Hg10 mi
9:53 PM37 °FClear.No wind70%29.90 "Hg10 mi
8:53 PM40 °FClear.6 mph68%29.88 "Hg10 mi
7:53 PM40 °FClear.6 mph80%29.87 "Hg10 mi
6:53 PM46 °FClear.6 mph68%29.85 "Hg10 mi
5:53 PM47 °FClear.8 mph56%29.84 "Hg10 mi
Weather by CustomWeather, © 2014

See weather overviewHow to use our weather pages